TONGUE Weather Reports


time (UTC)temp
C
wind
direction
speed
KPH
gust
KPH
rain 1hr
cm
rain 24hr
cm
rain mn
cm
humidity
%
barometer
mb
20260503230003 30 283 8.0 17.7 0.00 0.00 0.00 28
20260503225003 29 284 9.7 12.9 0.00 0.00 0.00 29
20260503224003 28 288 9.7 12.9 0.00 0.00 0.00 29
20260503223003 30 288 3.2 12.9 0.00 0.00 0.00 26
20260503222002 31 174 0.0 8.0 0.00 0.00 0.00 24
20260503221003 30 312 3.2 6.4 0.00 0.00 0.00 26
20260503220003 30 185 1.6 6.4 0.00 0.00 0.00 27
20260503215003 30 68 235.0 6.4 0.00 0.00 0.00 30
20260503214003 29 55 1.6 6.4 0.00 0.00 0.00 34
20260503213003 29 60 1.6 4.8 0.00 0.00 0.00 34
20260503212003 28 42 0.0 6.4 0.00 0.00 0.00 34
20260503211002 28 55 1.6 4.8 0.00 0.00 0.00 37
20260503210003 27 40 0.0 4.8 0.00 0.00 0.00 42
20260503205003 27 60 3.2 6.4 0.00 0.00 0.00 41
20260503204003 26 65 235.0 4.8 0.00 0.00 0.00 40
20260503203003 26 85 1.6 4.8 0.00 0.00 0.00 48
20260503202004 25 103 1.6 6.4 0.00 0.00 0.00 50
20260503201002 25 43 235.0 3.2 0.00 0.00 0.00 50
20260503200003 25 94 1.6 4.8 0.00 0.00 0.00 52
20260503195002 25 37 1.6 6.4 0.00 0.00 0.00 55
20260503194003 25 52 1.6 4.8 0.00 0.00 0.00 52
20260503193003 24 59 1.6 3.2 0.00 0.00 0.00 55
20260503192003 23 37 235.0 6.4 0.00 0.00 0.00 56
20260503191003 24 106 235.0 235.0 0.00 0.00 0.00 48
20260503190004 23 50 235.0 0.0 0.00 0.00 0.00 59
20260503185002 23 76 235.0 0.0 0.00 0.00 0.00 56
20260503184003 22 47 235.0 235.0 0.00 0.00 0.00 59
20260503183003 22 56 235.0 0.0 0.00 0.00 0.00 60
20260503182003 21 51 235.0 3.2 0.00 0.00 0.00 64
20260503181003 22 50 1.6 4.8 0.00 0.00 0.00 60
20260503180004 21 29 1.6 6.4 0.00 0.00 0.00 61
20260503175003 21 84 1.6 4.8 0.00 0.00 0.00 62
20260503174003 21 66 3.2 6.4 0.00 0.00 0.00 65
20260503173003 20 80 3.2 8.0 0.00 0.00 0.00 64
20260503172003 20 62 1.6 8.0 0.00 0.00 0.00 62
20260503171003 20 134 1.6 6.4 0.00 0.00 0.00 62
20260503151003 15 62 3.2 6.4 0.00 0.00 0.00 88
20260503131002 8 175 3.2 4.8 0.00 0.00 0.00 100
20260503081002 8 184 1.6 4.8 0.00 0.00 0.00 99
20260503072003 9 187 0.0 3.2 0.00 0.00 0.00 99
20260503071002 9 177 3.2 4.8 0.00 0.00 0.00 100
20260503055003 10 181 0.0 3.2 0.00 0.00 0.00 100
20260503054003 10 186 0.0 3.2 0.00 0.00 0.00 100
20260503053002 10 176 1.6 3.2 0.00 0.00 0.00 100
20260503052003 11 171 1.6 3.2 0.00 0.00 0.00 100
20260503051003 11 183 1.6 3.2 0.00 0.00 0.00 100
20260503050003 11 187 1.6 3.2 0.00 0.00 0.00 100
20260503045003 11 185 1.6 3.2 0.00 0.00 0.00 100
20260503044003 11 196 0.0 3.2 0.00 0.00 0.00 100
20260503043003 12 211 0.0 3.2 0.00 0.00 0.00 100
20260503042002 12 206 0.0 4.8 0.00 0.00 0.00 100
20260503041002 12 215 0.0 0.0 0.00 0.00 0.00 100
20260503040003 12 210 0.0 0.0 0.00 0.00 0.00 100
20260503035003 12 213 0.0 0.0 0.00 0.00 0.00 100
20260503034003 12 184 0.0 0.0 0.00 0.00 0.00 99
20260503033004 13 191 235.0 0.0 0.00 0.00 0.00 96
20260503032003 13 195 0.0 6.4 0.00 0.00 0.00 95
20260503031002 13 212 0.0 6.4 0.00 0.00 0.00 94
20260503030003 14 189 1.6 9.7 0.00 0.00 0.00 91
20260503025002 15 185 1.6 4.8 0.00 0.00 0.00 91
20260503024003 15 177 0.0 4.8 0.00 0.00 0.00 91
20260503023003 15 163 0.0 3.2 0.00 0.00 0.00 86
20260503022004 16 217 0.0 3.2 0.00 0.00 0.00 87
20260503021003 16 184 0.0 4.8 0.00 0.00 0.00 81
20260503020003 16 268 0.0 3.2 0.00 0.00 0.00 80
20260503015002 17 183 0.0 3.2 0.00 0.00 0.00 80
20260503014003 18 173 0.0 4.8 0.00 0.00 0.00 73
20260503013003 18 194 1.6 3.2 0.00 0.00 0.00 71
20260503012003 17 201 0.0 6.4 0.00 0.00 0.00 73
20260503011003 18 188 0.0 4.8 0.00 0.00 0.00 72
20260503010004 18 227 1.6 4.8 0.00 0.00 0.00 72
20260503005002 18 257 0.0 12.9 0.00 0.00 0.00 72
20260503004003 17 284 4.8 12.9 0.00 0.00 0.00 74
20260503003003 16 287 8.0 12.9 0.00 0.00 0.00 75
20260503002003 16 277 6.4 14.5 0.00 0.00 0.00 75
20260503001003 16 283 6.4 16.1 0.00 0.00 0.00 77
20260503000003 16 283 9.7 17.7 0.00 0.00 0.00 79
20260502235002 16 286 9.7 17.7 0.00 0.00 0.00 78
20260502234002 16 286 8.0 22.5 0.00 0.00 0.00 78
20260502233003 15 290 14.5 27.4 0.00 0.00 0.00 80
20260502232004 15 292 12.9 22.5 0.00 0.00 0.00 81
20260502231003 15 294 12.9 20.9 0.00 0.00 0.00 81